Location: Peterson
(33.2326°N, 87.4236°W)
Time: 10:06:37
(UTC+00:00)

HTV-X1 - Visible Passes

Search period start: 11 June 2026 00:00
Search period end: 21 June 2026 00:00
Orbit: 368 x 378 km, 51.6° (Epoch: 26 May)

Date Brightness Start Highest point End Pass type
(mag) Time Alt. Az. Time Alt. Az. Time Alt. Az.
15 Jun ? 09:51:29 10° SSE 09:53:14 14° SE 09:55:00 10° E visible
17 Jun ? 09:20:30 16° S 09:22:01 22° SE 09:24:29 10° ENE visible
18 Jun ? 09:51:35 14° WSW 09:54:04 63° NW 09:57:05 10° NE visible
19 Jun ? 08:50:36 36° SE 08:50:36 36° SE 08:53:26 10° ENE visible
20 Jun ? 09:21:26 26° W 09:22:38 39° NW 09:25:32 10° NNE visible
